Henderson, NV

5:25 AM PDT on October 17, 2017 (GMT -0700)
Henderson

Weather History for KHND - March, 2014

Change the Weather History Date:

Thursday, March 13, 2014

  Actual Average (KLAS) Record (KLAS)
Temperature  
Mean Temperature 56 °F -  
Max Temperature 68 °F 68 °F 90 °F (2007)
Min Temperature 45 °F 44 °F 25 °F (1950)
Degree Days  
Heating Degree Days 8    
Growing Degree Days 6 (Base 50)    
Moisture  
Dew Point 18 °F    
Average Humidity 24    
Maximum Humidity 34    
Minimum Humidity 13    
Precipitation  
Precipitation 0.00 in - - ()
Sea Level Pressure  
Sea Level Pressure 29.98 in    
Wind  
Wind Speed 6 mph (SE)    
Max Wind Speed 10 mph    
Max Gust Speed -    
Visibility 10 miles    
Events      
Averages and records for this station are not official NWS values.
T = Trace of Precipitation, MM = Missing Value Source: NWS Daily Summary

Daily Weather History Graph

Daily Weather History Graph

Search for Another Location

Airport or City:

Trip Planner

Search our weather history database for the weather conditions in past years. The results will help you decide how hot, cold, wet, or windy it might be!

Date:

Astronomy

Mar. 13, 2014 Rise Set
Actual Time 6:54 AM PDT 6:46 PM PDT
Civil Twilight 6:28 AM PDT 7:11 PM PDT
Nautical Twilight 5:58 AM PDT 7:41 PM PDT
Astronomical Twilight 5:28 AM PDT 8:11 PM PDT
Moon 4:19 PM PDT (3/13) 4:59 AM PDT (3/13)
Length of Visible Light 12h 43m
Length of Day
11h 52m
Waxing Gibbous, 92% of the Moon is Illuminated
Mar 13
Waxing Gibbous
Mar 16
Full
Mar 23
Last Quarter
Mar 30
New
Apr 7
First Quarter

Hourly Weather History & Observations

Time (PDT) Temp. Windchill Dew Point Humidity Pressure Visibility Wind Dir Wind Speed Gust Speed Precip Events Conditions
12:56 AM 47.8 °F - 15.1 °F 27% 30.02 in 10.0 mi South 10.4 mph - N/A   Clear
1:56 AM 46.9 °F - 15.1 °F 28% 30.01 in 10.0 mi South 9.2 mph - N/A   Clear
2:56 AM 46.9 °F - 16.2 °F 29% 30.00 in 10.0 mi South 8.1 mph - N/A   Clear
3:56 AM 46.9 °F - 18.1 °F 32% 30.00 in 10.0 mi South 8.1 mph - N/A   Clear
4:56 AM 45.9 °F 41.2 °F 18.1 °F 33% 30.01 in 10.0 mi South 9.2 mph - N/A   Clear
5:56 AM 45.0 °F 41.8 °F 18.1 °F 34% 30.01 in 10.0 mi SSE 5.8 mph - N/A   Clear
6:56 AM 47.8 °F - 18.1 °F 31% 30.01 in 10.0 mi Calm Calm - N/A   Clear
7:56 AM 48.9 °F - 20.1 °F 32% 30.03 in 10.0 mi SSE 3.5 mph - N/A   Clear
8:56 AM 52.9 °F - 21.0 °F 29% 30.04 in 10.0 mi SSE 3.5 mph - N/A   Clear
9:56 AM 56.8 °F - 17.1 °F 21% 30.04 in 10.0 mi Variable 4.6 mph - N/A   Clear
10:56 AM 61.0 °F - 16.2 °F 18% 30.02 in 10.0 mi NNE 4.6 mph - N/A   Clear
11:56 AM 63.0 °F - 16.2 °F 16% 30.01 in 10.0 mi Variable 5.8 mph - N/A   Clear
12:56 PM 63.9 °F - 16.2 °F 16% 29.99 in 10.0 mi Calm Calm - N/A   Clear
1:56 PM 64.9 °F - 17.1 °F 16% 29.96 in 10.0 mi NE 5.8 mph - N/A   Clear
2:56 PM 65.8 °F - 16.2 °F 15% 29.94 in 10.0 mi NE 5.8 mph - N/A   Clear
3:56 PM 68.9 °F - 16.2 °F 13% 29.92 in 10.0 mi SE 4.6 mph - N/A   Clear
4:56 PM 68.9 °F - 17.1 °F 14% 29.91 in 10.0 mi ENE 6.9 mph - N/A   Clear
5:56 PM 68.0 °F - 17.1 °F 14% 29.91 in 10.0 mi NE 6.9 mph - N/A   Clear
6:56 PM 63.9 °F - 19.0 °F 18% 29.92 in 10.0 mi Calm Calm - N/A   Clear
7:56 PM 59.9 °F - 23.0 °F 24% 29.93 in 10.0 mi East 3.5 mph - N/A   Clear
8:56 PM 55.9 °F - 21.0 °F 26% 29.94 in 10.0 mi SSW 3.5 mph - N/A   Clear
9:56 PM 54.9 °F - 24.1 °F 30% 29.96 in 10.0 mi SSE 4.6 mph - N/A   Mostly Cloudy
10:56 PM 54.0 °F - 24.1 °F 31% 29.96 in 10.0 mi SSE 5.8 mph - N/A   Clear
11:56 PM 50.9 °F - 23.0 °F 34% 29.96 in 10.0 mi SSW 3.5 mph - N/A   Clear